BNI71 EPLL-EPLL

Flight info

Callsign BNI71
Flight time 0h 38m
Altitude 6000
Route ADOX2W DCT
Aircraft P06T/L-SBDGRY/S

Departure

Time 2026-04-28 17:13
Airport Łódź Władysław Reymont Airport (EPLL)

Arrival

Time 2026-04-28 17:52
Airport Łódź Władysław Reymont Airport (EPLL)
Time Latitude Longitude Altitude Speed Heading
2026-04-28 16:58 51.71988 19.40683 604 ft 0 kts 30°
2026-04-28 17:09 51.72001 19.40729 610 ft 10 kts 71°
2026-04-28 17:09 51.72024 19.40837 611 ft 10 kts 62°
2026-04-28 17:10 51.72115 19.40840 604 ft 17 kts 354°
2026-04-28 17:10 51.72229 19.40767 614 ft 12 kts 322°
2026-04-28 17:10 51.72269 19.40718 607 ft 0 kts 324°
2026-04-28 17:11 51.72275 19.40711 607 ft 9 kts 321°
2026-04-28 17:11 51.72352 19.40596 606 ft 11 kts 277°
2026-04-28 17:12 51.72294 19.40303 602 ft 58 kts 251°
2026-04-28 17:12 51.72136 19.39544 732 ft 78 kts 251°
2026-04-28 17:12 51.71952 19.38646 878 ft 86 kts 253°
2026-04-28 17:12 51.71779 19.37723 1014 ft 88 kts 248°
2026-04-28 17:13 51.71548 19.36748 1169 ft 97 kts 249°
2026-04-28 17:13 51.71327 19.35737 1406 ft 96 kts 249°
2026-04-28 17:13 51.71095 19.34735 1664 ft 94 kts 250°
2026-04-28 17:13 51.70873 19.33742 1899 ft 94 kts 250°
2026-04-28 17:14 51.70656 19.32761 2150 ft 92 kts 250°
2026-04-28 17:14 51.70440 19.31785 2398 ft 92 kts 250°
2026-04-28 17:14 51.70229 19.30816 2641 ft 91 kts 250°
2026-04-28 17:14 51.70013 19.29838 2850 ft 95 kts 250°
2026-04-28 17:15 51.69789 19.28816 3059 ft 99 kts 250°
2026-04-28 17:15 51.69688 19.27726 3260 ft 102 kts 282°
2026-04-28 17:15 51.70089 19.26796 3464 ft 104 kts 323°
2026-04-28 17:15 51.70763 19.26373 3668 ft 105 kts 340°
2026-04-28 17:16 51.71438 19.25970 3869 ft 105 kts 339°
2026-04-28 17:16 51.72127 19.25578 4074 ft 105 kts 339°
2026-04-28 17:16 51.72816 19.25186 4270 ft 105 kts 339°
2026-04-28 17:16 51.73507 19.24792 4471 ft 106 kts 340°
2026-04-28 17:17 51.74201 19.24396 4671 ft 106 kts 339°
2026-04-28 17:17 51.74899 19.24000 4869 ft 106 kts 339°
2026-04-28 17:17 51.75594 19.23605 5070 ft 106 kts 339°
2026-04-28 17:17 51.76286 19.23210 5268 ft 105 kts 340°
2026-04-28 17:18 51.76993 19.22932 5455 ft 106 kts
2026-04-28 17:18 51.77619 19.23518 5597 ft 108 kts 52°
2026-04-28 17:18 51.77752 19.24692 5709 ft 110 kts 103°
2026-04-28 17:18 51.77671 19.25956 5736 ft 119 kts 91°
2026-04-28 17:19 51.77679 19.27321 5734 ft 124 kts 91°
2026-04-28 17:19 51.77685 19.28768 5619 ft 134 kts 90°
2026-04-28 17:19 51.77694 19.30308 5483 ft 139 kts 90°
2026-04-28 17:19 51.77704 19.31878 5321 ft 140 kts 90°
2026-04-28 17:20 51.77709 19.33452 5146 ft 140 kts 91°
2026-04-28 17:20 51.77713 19.34488 5032 ft 139 kts 91°
2026-04-28 17:20 51.77716 19.36578 4799 ft 139 kts 94°
2026-04-28 17:20 51.77638 19.38128 4625 ft 139 kts 94°
2026-04-28 17:21 51.77622 19.39656 4452 ft 138 kts 92°
2026-04-28 17:21 51.77605 19.41209 4274 ft 138 kts 91°
2026-04-28 17:21 51.77601 19.42761 4102 ft 138 kts 91°
2026-04-28 17:22 51.77599 19.45836 3751 ft 137 kts 91°
2026-04-28 17:22 51.77599 19.47368 3576 ft 137 kts 91°
2026-04-28 17:22 51.77599 19.48903 3401 ft 137 kts 91°
2026-04-28 17:23 51.77591 19.51971 3050 ft 137 kts 94°
2026-04-28 17:23 51.77591 19.53509 2876 ft 137 kts 89°
2026-04-28 17:23 51.77614 19.55026 2731 ft 135 kts 90°
2026-04-28 17:23 51.77639 19.56490 2724 ft 128 kts 89°
2026-04-28 17:24 51.77666 19.57909 2719 ft 125 kts 89°
2026-04-28 17:24 51.77692 19.59308 2714 ft 125 kts 89°
2026-04-28 17:24 51.77717 19.60702 2715 ft 124 kts 89°
2026-04-28 17:24 51.77702 19.62092 2715 ft 124 kts 94°
2026-04-28 17:25 51.77757 19.63466 2714 ft 124 kts 69°
2026-04-28 17:25 51.78529 19.65949 2720 ft 124 kts 64°
2026-04-28 17:25 51.78908 19.67195 2717 ft 124 kts 64°
2026-04-28 17:26 51.79292 19.68419 2721 ft 124 kts 63°
2026-04-28 17:26 51.79703 19.69643 2710 ft 124 kts 51°
2026-04-28 17:26 51.80456 19.70219 2711 ft 122 kts
2026-04-28 17:26 51.81202 19.69690 2703 ft 119 kts 312°
2026-04-28 17:27 51.81421 19.68463 2701 ft 116 kts 262°
2026-04-28 17:27 51.81187 19.67706 2701 ft 115 kts 229°
2026-04-28 17:27 51.80472 19.67193 2722 ft 115 kts 193°
2026-04-28 17:27 51.79702 19.66831 2732 ft 116 kts 199°
2026-04-28 17:28 51.78931 19.66416 2735 ft 117 kts 199°
2026-04-28 17:28 51.77690 19.64400 2653 ft 124 kts 255°
2026-04-28 17:28 51.77505 19.63515 2560 ft 126 kts 249°
2026-04-28 17:29 51.77197 19.62199 2415 ft 124 kts 247°
2026-04-28 17:29 51.76825 19.60948 2267 ft 123 kts 246°
2026-04-28 17:29 51.76536 19.59646 2118 ft 123 kts 250°
2026-04-28 17:30 51.75948 19.57081 1927 ft 117 kts 249°
2026-04-28 17:30 51.75415 19.54691 1929 ft 104 kts 250°
2026-04-28 17:30 51.75190 19.53652 1929 ft 93 kts 250°
2026-04-28 17:31 51.74985 19.52699 1918 ft 89 kts 250°
2026-04-28 17:31 51.74612 19.50847 1912 ft 87 kts 251°
2026-04-28 17:32 51.74231 19.49148 1800 ft 77 kts 246°
2026-04-28 17:32 51.73994 19.48366 1664 ft 79 kts 247°
2026-04-28 17:32 51.73833 19.47547 1540 ft 75 kts 257°
2026-04-28 17:32 51.73697 19.46723 1418 ft 76 kts 252°
2026-04-28 17:33 51.73516 19.45916 1320 ft 78 kts 248°
2026-04-28 17:33 51.73318 19.45078 1231 ft 84 kts 251°
2026-04-28 17:33 51.73137 19.44162 1107 ft 87 kts 250°
2026-04-28 17:33 51.72996 19.43554 1034 ft 87 kts 251°
2026-04-28 17:34 51.72732 19.42337 886 ft 85 kts 250°
2026-04-28 17:34 51.72544 19.41456 779 ft 82 kts 250°
2026-04-28 17:34 51.72356 19.40596 640 ft 82 kts 250°
2026-04-28 17:34 51.72194 19.39845 593 ft 67 kts 250°
2026-04-28 17:35 51.72022 19.39036 745 ft 82 kts 252°
2026-04-28 17:35 51.71839 19.38130 913 ft 85 kts 252°
2026-04-28 17:35 51.71647 19.37152 1054 ft 97 kts 252°
2026-04-28 17:35 51.71437 19.36111 1276 ft 99 kts 252°
2026-04-28 17:36 51.71289 19.35037 1515 ft 98 kts 268°
2026-04-28 17:36 51.71527 19.34037 1772 ft 96 kts 317°
2026-04-28 17:36 51.72151 19.33768 1986 ft 101 kts
2026-04-28 17:36 51.72722 19.34391 2193 ft 103 kts 58°
2026-04-28 17:37 51.72956 19.35471 2419 ft 102 kts 77°
2026-04-28 17:37 51.73088 19.36605 2630 ft 104 kts 82°
2026-04-28 17:37 51.73202 19.37815 2723 ft 117 kts 83°
2026-04-28 17:37 51.73432 19.39117 2730 ft 123 kts 73°
2026-04-28 17:38 51.73677 19.40453 2735 ft 125 kts 74°
2026-04-28 17:38 51.73926 19.41809 2733 ft 127 kts 75°
2026-04-28 17:38 51.74172 19.43178 2732 ft 127 kts 75°
2026-04-28 17:38 51.74418 19.44551 2733 ft 128 kts 75°
2026-04-28 17:39 51.74663 19.45927 2736 ft 128 kts 75°
2026-04-28 17:39 51.74906 19.47286 2731 ft 128 kts 75°
2026-04-28 17:39 51.75396 19.50044 2730 ft 128 kts 75°
2026-04-28 17:40 51.75642 19.51426 2731 ft 128 kts 75°
2026-04-28 17:40 51.75888 19.52810 2734 ft 128 kts 75°
2026-04-28 17:40 51.76135 19.54192 2734 ft 128 kts 75°
2026-04-28 17:40 51.76380 19.55576 2734 ft 128 kts 75°
2026-04-28 17:41 51.76626 19.56955 2734 ft 128 kts 75°
2026-04-28 17:41 51.76871 19.58336 2731 ft 128 kts 75°
2026-04-28 17:41 51.77116 19.59715 2731 ft 128 kts 75°
2026-04-28 17:41 51.77361 19.61093 2732 ft 128 kts 75°
2026-04-28 17:42 51.77600 19.62453 2730 ft 128 kts 75°
2026-04-28 17:42 51.78053 19.63673 2722 ft 128 kts 55°
2026-04-28 17:42 51.78457 19.64952 2727 ft 128 kts 65°
2026-04-28 17:42 51.78832 19.66253 2727 ft 128 kts 70°
2026-04-28 17:43 51.79079 19.67629 2725 ft 128 kts 73°
2026-04-28 17:43 51.79445 19.68931 2723 ft 128 kts 64°
2026-04-28 17:43 51.79879 19.70187 2714 ft 128 kts 46°
2026-04-28 17:43 51.80682 19.70682 2707 ft 126 kts 357°
2026-04-28 17:44 51.81424 19.70039 2709 ft 123 kts 307°
2026-04-28 17:44 51.81592 19.68762 2704 ft 120 kts 258°
2026-04-28 17:44 51.81089 19.67749 2705 ft 119 kts 207°
2026-04-28 17:44 51.80290 19.67395 2726 ft 120 kts 197°
2026-04-28 17:45 51.79495 19.66973 2733 ft 121 kts 199°
2026-04-28 17:45 51.78789 19.66279 2728 ft 121 kts 234°
2026-04-28 17:45 51.78413 19.65059 2735 ft 122 kts 243°
2026-04-28 17:45 51.78022 19.63841 2736 ft 122 kts 243°
2026-04-28 17:46 51.77651 19.62606 2738 ft 123 kts 244°
2026-04-28 17:46 51.77254 19.61373 2659 ft 127 kts 242°
2026-04-28 17:46 51.76859 19.60137 2434 ft 124 kts 242°
2026-04-28 17:46 51.76463 19.58909 2211 ft 123 kts 243°
2026-04-28 17:47 51.76071 19.57682 2013 ft 121 kts 244°
2026-04-28 17:47 51.75802 19.56439 1910 ft 115 kts 251°
2026-04-28 17:47 51.75541 19.55242 1847 ft 113 kts 250°
2026-04-28 17:47 51.75371 19.54453 1833 ft 109 kts 250°
2026-04-28 17:48 51.75064 19.53047 1832 ft 93 kts 250°
2026-04-28 17:48 51.74859 19.52100 1822 ft 87 kts 250°
2026-04-28 17:48 51.74669 19.51225 1818 ft 76 kts 250°
2026-04-28 17:48 51.74497 19.50441 1814 ft 73 kts 250°
2026-04-28 17:49 51.74329 19.49666 1818 ft 76 kts 250°
2026-04-28 17:49 51.74153 19.48829 1804 ft 83 kts 251°
2026-04-28 17:49 51.73944 19.47955 1793 ft 73 kts 249°
2026-04-28 17:49 51.73775 19.47228 1581 ft 74 kts 250°
2026-04-28 17:50 51.73599 19.46435 1499 ft 72 kts 250°
2026-04-28 17:50 51.73450 19.45636 1394 ft 75 kts 258°
2026-04-28 17:50 51.73275 19.44843 1305 ft 75 kts 244°
2026-04-28 17:50 51.73085 19.44034 1122 ft 83 kts 250°
2026-04-28 17:51 51.72911 19.43175 1010 ft 82 kts 253°
2026-04-28 17:51 51.72725 19.42309 881 ft 81 kts 251°
2026-04-28 17:51 51.72539 19.41449 763 ft 82 kts 250°
2026-04-28 17:51 51.72352 19.40577 634 ft 84 kts 251°
2026-04-28 17:52 51.72197 19.39867 593 ft 43 kts 253°
2026-04-28 17:52 51.72187 19.39738 589 ft 1 kts 26°
2026-04-28 17:52 51.72336 19.40489 603 ft 19 kts 69°
2026-04-28 17:53 51.72303 19.40678 607 ft 20 kts 139°
2026-04-28 17:53 51.72220 19.40778 605 ft 17 kts 143°
2026-04-28 17:53 51.72131 19.40837 606 ft 12 kts 173°
2026-04-28 17:53 51.72038 19.40851 611 ft 11 kts 192°
2026-04-28 17:54 51.72019 19.40814 611 ft 2 kts 259°